958  
ASUS43 KEAX 230210  
RWREAX  
 
WEATHER ROUNDUP FOR EASTERN KANSAS AND NORTHWEST MISSOURI  
NATIONAL WEATHER SERVICE KANSAS CITY/PLEASANT HILL MO  
800 PM CST MON JAN 22 2018  
 
KSZ040-057-103>105-MOZ028-029-037-043-230300-   
..KANSAS CITY METROPOLITAN AREA
 
 
 
CITY SKY/WX TMP DP RH WIND PRES REMARKS
 
K.C. INTL LGT SNOW 33 29 85 NW22G32 29.66R FOG WCI 21  
K.C. DOWNTOWN CLOUDY 35 28 75 NW20G29 29.67R WCI 24  
LEES SUMMIT CLOUDY 33 31 92 W20G25 29.66R WCI 21  
OLATHE - IXD CLOUDY 31 29 92 W22G28 29.72R FOG WCI 18  
OLATHE - OJC LGT SNOW 31 28 89 NW18G28 29.69R FOG WCI 19  
LAWRENCE LGT SNOW 32 29 88 W23G31 29.74R FOG WCI 19  
 

 
 
MOZ001>008-011>017-020>025-030>033-038>040-044>046-053-054-230300-   
..NORTHERN AND CENTRAL MISSOURI
 
 
 
CITY SKY/WX TMP DP RH WIND PRES REMARKS
 
ST. JOSEPH CLOUDY 33 30 88 NW29G38 29.67R WCI 19  
MOSBY CLOUDY 34 30 86 NW16G25 29.64R WCI 23  
WARRENSBURG FLURRIES 32 30 93 SW15G21 29.63R WCI 22  
WHITEMAN AFB LGT RAIN 32 29 87 W17G28 29.58R WCI 21  
CLINTON LGT RAIN 32 30 93 W18 29.68R WCI 20  
SEDALIA LGT SNOW 33 32 96 SW17G26 29.62R FOG WCI 22  
WARSAW NOT AVBL  
CHILLICOTHE N/A 36 33 89 W8G16 29.54R WCI 30  
KIRKSVILLE CLOUDY 35 35 100 SW9 29.50R WCI 28  
 

 
 
MOZ041-047>049-056>058-063>065-088>090-097-230300-   
..EASTERN AND SOUTHERN MISSOURI
 
 
 
CITY SKY/WX TMP DP RH WIND PRES REMARKS
 
ST. LOUIS INTL LGT RAIN 45 31 58 SW18G33 29.59S  
SPIRIT OF STL CLOUDY 43 32 65 SW17G35 29.59R  
COLUMBIA CLOUDY 35 29 78 SW24G30 29.58S WCI 23  
JEFFERSON CITY CLOUDY 38 27 64 W18G26 29.62R WCI 28  
ROLLA CLOUDY 36 30 79 W21G32 29.63R WCI 25  
OSAGE BEACH CLOUDY 34 29 82 W20G26 29.66R WCI 23  
SPRINGFIELD MIX PCPN 35 29 78 W18G35 29.74R WCI 24  
BRANSON CLOUDY 39 27 60 W14G29 29.78R WCI 31  
JOPLIN MIX PCPN 35 32 88 W18G30 29.82R WCI 24  
WEST PLAINS CLOUDY 39 28 64 W18G33 29.72R WCI 30  
 

 
 
IAZ060-094-KSZ022-034>040-054-083-096-NEZ052-066-093-230300-    
..KANSAS...SOUTHEAST NEBRASKA AND IOWA
 
 
 
CITY SKY/WX TMP DP RH WIND PRES REMARKS
 
TOPEKA CLOUDY 32 28 85 NW20G26 29.78R WCI 20  
MANHATTAN CLOUDY 33 26 75 NW13G25 29.87R WCI 24  
EMPORIA CLOUDY 32 26 78 NW23G35 29.83R WCI 19  
WICHITA PTCLDY 38 23 55 NW24G35 29.93R WCI 27  
OMAHA LGT SNOW 30 27 88 NW24G36 29.78R BLWGSNOWWCI 16  
LINCOLN CLOUDY 27 23 85 NW21G31 29.85R WCI 13  
FALLS CITY FLURRIES 30 27 88 NW23G33 29.73R WCI 17  
LAMONI CLOUDY 35 32 88 N20G29 29.53R WCI 24  
DES MOINES LGT SNOW 34 32 92 N15G26 29.54R FOG WCI 24  
 

 
 
 
 
CLICK HERE TO GO TO PREVIOUS BULLETINS.

The Nexlab MO Page
The Nexlab KS Page Main Text Page